#timestamp,LO_Frequency,Hit,StdDev 
1645362015.1,286046998.6,N
1645362016.0,286046998.6,N
1645362035.8,286046998.1,N
1645362055.6,286046999.7,N
1645362075.5,286046997.0,N
1645362095.3,286046995.7,N
1645362115.2,286046994.2,Y
1645362135.9,286046993.7,P
1645362155.7,286046996.8,N
1645362175.6,286046998.7,N
1645362195.4,286046999.3,N
1645362215.3,286047002.8,N
1645362235.1,286046998.8,N
1645362236.0,286046998.8,N
1645362255.8,286046999.0,N
1645362275.7,286046999.9,N
1645362295.5,286047002.3,N
1645362315.3,286047000.4,N
1645362365.2,286047000.6,E
1645362375.1,286046996.5,N
1645362395.9,286046995.1,P
1645362415.7,286046997.7,P
1645362435.5,286046996.9,N
1645362455.4,286046997.7,N
1645362475.2,286046999.2,N
1645362495.0,286046996.7,N
1645362495.9,286046996.7,N
1645362515.8,286046997.1,N
1645362535.6,286046995.4,Y
1645362555.5,286047001.2,P
1645362575.3,286047000.8,N
1645362595.1,286047000.9,N
1645362615.9,286047001.0,N
1645362635.7,286047000.5,N
1645362655.6,286047002.3,N
1645362675.4,286047002.6,N
1645362695.2,286047000.7,N
1645362715.1,286047000.5,N
1645362716.0,286047000.5,N
1645362735.8,286047000.5,N
1645362755.7,286047001.8,N
1645362775.5,286047003.5,N
1645362795.3,286047004.6,Y
1645362815.2,286047004.3,P
1645362835.0,286047002.2,N
1645362835.9,286047002.2,N
1645362855.8,286047000.9,N
1645362875.6,286047001.4,N
1645362895.4,286047011.9,Y
1645362915.3,286046997.3,P
1645362935.1,286046997.7,N
1645362955.8,286046996.9,N
1645362975.7,286046997.9,N
1645362995.5,286046997.0,N
1645363015.4,286046997.2,N
1645363035.2,286046995.6,N
1645363055.0,286046994.6,Y
1645363055.9,286046994.6,P
1645363075.8,286046996.9,N
1645363095.6,286047000.7,N
1645363115.5,286047001.7,N
1645363135.3,286047004.3,N
1645363155.1,286047002.1,N
1645363175.9,286047004.3,N
1645363195.7,286047003.5,N
1645363215.5,286047000.1,N
1645363235.4,286046999.8,N
1645363255.2,286047001.5,N
1645363275.1,286047002.2,N
1645363276.0,286047002.2,N
1645363295.8,286047001.7,N
1645363315.6,286047002.5,N
1645363335.5,286047002.5,N
1645363355.3,286047001.3,N
1645363375.1,286047001.9,N
1645363395.9,286047003.2,N
1645363415.7,286046999.9,N
1645363435.6,286047000.7,N
1645363455.4,286047002.4,N
1645363475.2,286047004.2,N
1645363495.1,286047002.0,N
1645363496.0,286047002.0,N
1645363515.8,286047002.5,N
1645363535.6,286047004.2,N
1645363555.5,286047003.5,N
1645363575.3,286047004.1,N
1645363595.2,286047003.1,N
1645363615.9,286047001.3,N
1645363635.7,286047007.2,Y
1645363655.6,286047001.7,P
1645363675.4,286047004.2,P
1645363695.3,286047001.5,N
1645363715.1,286047002.8,N
1645363716.0,286047002.8,N
1645363735.8,286047001.6,N
1645363755.7,286046998.1,N
1645363775.5,286046998.9,N
1645363795.3,286046998.5,N
1645363815.2,286046998.9,N
1645363835.0,286046998.6,N
1645363835.9,286046998.6,N
1645363855.8,286046999.9,N
1645363875.6,286047001.1,N
1645363895.4,286047000.3,N
1645363915.3,286047001.3,N
1645363935.1,286047003.1,N
1645363955.8,286047006.9,Y
1645363975.7,286047005.8,P
1645363995.5,286047001.7,N
1645364015.4,286047003.5,N
1645364035.2,286047004.9,N
1645364055.0,286047006.6,Y
1645364055.9,286047006.6,P
1645364075.8,286047001.6,N
1645364095.6,286046998.3,N
1645364115.4,286047002.8,N
1645364135.3,286046999.2,N
1645364155.1,286046994.9,N
1645364175.9,286046998.0,N
1645364195.7,286046995.2,N
1645364215.5,286046998.0,N
1645364235.4,286046999.5,N
1645364255.2,286047002.8,N
1645364275.0,286047000.1,N
1645364275.9,286047000.1,N
1645364295.8,286046999.2,N
1645364315.6,286046996.5,N
1645364335.5,286047000.9,N
1645364355.3,286047000.3,N
1645364375.1,286046999.9,N
1645364395.9,286047001.0,N
1645364415.7,286046999.9,N
1645364435.5,286046999.8,N
1645364455.4,286047003.5,N
1645364475.2,286047004.0,N
1645364495.1,286047002.4,N
1645364496.0,286047002.4,N
1645364515.8,286047000.9,N
1645364535.6,286047002.8,N
1645364555.5,286047002.3,N
1645364575.3,286047007.6,N
1645364595.1,286047004.9,N
1645364615.9,286047004.8,N
1645364635.7,286047003.7,N
1645364655.6,286047001.6,N
1645364675.4,286047004.8,N
1645364695.2,286047003.1,N
1645364715.1,286047005.1,N
1645364716.0,286047005.1,N
1645364735.8,286047003.5,N
1645364755.7,286047004.6,N
1645364775.5,286047007.3,Y
1645364795.3,286047003.2,P
1645364815.2,286047001.9,P
1645364835.0,286047003.9,P
1645364835.9,286047003.9,Y
1645364855.8,286046998.2,P
1645364875.6,286046998.5,N
1645364895.4,286047002.6,N
1645364915.3,286047002.5,N
1645364935.1,286047002.5,N
1645364955.8,286047004.1,N
1645364975.7,286047002.1,N
1645364995.5,286047003.7,N
1645365015.4,286047000.8,N
1645365035.2,286047001.2,N
1645365055.0,286047001.2,N
1645365055.9,286047001.2,N
1645365075.8,286047002.5,N
1645365095.6,286046998.7,N
1645365115.5,286046998.4,N
1645365135.3,286046999.5,N
1645365155.1,286046996.8,N
1645365175.9,286046993.3,Y
1645365195.7,286046994.7,P
1645365215.5,286046991.8,N
1645365235.4,286046996.4,N
1645365255.2,286046993.0,N
1645365275.1,286046994.1,N
1645365276.0,286046994.1,N
1645365295.8,286046996.2,N
1645365315.6,286046997.8,N
1645365335.5,286046997.8,N
1645365355.3,286046999.4,N
1645365375.1,286046997.9,N
1645365395.9,286046996.6,N
1645365415.7,286046999.3,N
1645365435.6,286046994.9,N
1645365455.4,286046996.8,N
1645365475.2,286046998.7,N
1645365495.1,286046998.2,N
1645365496.0,286046998.2,N
1645365515.8,286047000.8,N
1645365535.6,286046999.5,N
1645365555.5,286046997.0,N
1645365575.3,286046996.6,N
1645365595.2,286047001.2,N
